Location: Goettingen
(51.5300°N, 9.9433°E)
Time: 05:25:21
(UTC+02:00)

ISS - Pass Details

Date: 29 March 2020
Orbit: 417 x 423 km, 51.6° (Epoch: 29 March)

Event Time Altitude Azimuth Distance (km) Brightness Sun altitude
Rises 21:42:24 0° 282° (WNW) 2,362 1.5 -17.4°
Reaches altitude 10° 21:44:31 10° 279° (W) 1,498 0.1 -17.7°
Maximum altitude 21:47:49 60° 199° (SSW) 483 -3.6 -18.1°
Enters shadow 21:48:12 55° 165° (SSE) 508 -3.7 -18.2°
